This is the latest recevied weather packets stored in our database for station/object KA6AKH-WX. If no packets are shown the sender has not sent any weather packets the latest 10 day(s).
| Time | Temp. | Humidity | Pressure | Rain* | Wind** | Luminosity | Snow |
|---|---|---|---|---|---|---|---|
| 1788401168 | 23.89° C | 91% | 1016.7 hPa | 0 mm | - | - | - |
| 1788400568 | 23.89° C | 91% | 1016.6 hPa | 0 mm | - | - | - |
| 1788399968 | 23.89° C | 91% | 1016.7 hPa | 0 mm | - | - | - |
| 1788399368 | 23.89° C | 91% | 1016.9 hPa | 0 mm | - | - | - |
| 1788398768 | 23.89° C | 90% | 1017.3 hPa | 0 mm | - | - | - |
| 1788398168 | 23.89° C | 90% | 1017.3 hPa | 0 mm | - | - | - |
| 1788397567 | 24.44° C | 89% | 1017.3 hPa | 0 mm | - | - | - |
| 1788396967 | 24.44° C | 89% | 1017 hPa | 0 mm | - | - | - |
| 1788396367 | 24.44° C | 89% | 1017 hPa | 0 mm | - | - | - |
| 1788395348 | 24.44° C | 89% | 1016.9 hPa | 0 mm | - | - | - |
| 1788395167 | 24.44° C | 89% | 1016.9 hPa | 0 mm | - | - | - |
| 1788394567 | 24.44° C | 89% | 1017 hPa | 0 mm | - | - | - |
| 1788393967 | 24.44° C | 88% | 1017 hPa | 0 mm | - | - | - |
| 1788393367 | 24.44° C | 88% | 1017.2 hPa | 0 mm | - | - | - |
| 1788392767 | 24.44° C | 88% | 1017.2 hPa | 0 mm | - | - | - |
| 1788391567 | 25° C | 87% | 1016.9 hPa | 0 mm | - | - | - |
| 1788390967 | 25° C | 86% | 1017 hPa | 0 mm | - | - | - |
| 1788390367 | 25° C | 84% | 1017.3 hPa | 0 mm | - | - | - |
| 1788389767 | 25.56° C | 84% | 1017.3 hPa | 0 mm | - | - | - |
| 1788389167 | 25.56° C | 84% | 1017.4 hPa | 0 mm | - | - | - |
| 1788388537 | 25.56° C | 84% | 1017.3 hPa | 0 mm | - | - | - |
| 1788387938 | 25° C | 85% | 1017.4 hPa | 0 mm | - | - | - |
| 1788387307 | 25° C | 87% | 1017.3 hPa | 0 mm | - | - | - |
| 1788386707 | 25° C | 91% | 1017.5 hPa | 0 mm | - | - | - |
| 1788386107 | 25° C | 92% | 1017.6 hPa | 0 mm | - | - | - |
* Rain latest hour (hover to see other rain measurements)
** Current wind speed in m/s (hover to see current wind gust speed)